Location: Unspecified
(47.9110°N, 14.3980°E)
Time: 05:40:10
(UTC+00:00)

Thor Agena Rocket - Pass Details

Date: 06 August 2020
Orbit: 760 x 807 km, 99.0° (Epoch: 19 September)

Event Time Altitude Azimuth Distance (km) Brightness Sun altitude
Rises 22:12:01 0° 14° (NNE) 3,236 7.7 -24.5°
Reaches altitude 10° 22:14:19 10° 13° (NNE) 2,308 6.8 -24.6°
Maximum altitude 22:19:24 80° 287° (WNW) 785 3.5 -24.8°
Enters shadow 22:20:08 65° 220° (SW) 845 3.5 -24.8°
